Wind_Speed
14 14 14 15 16 17 17 19 20 22 23 25 26 26 26 26 26 27 28 29 30 31 32 34 35 36 37 38 39 40 40 41 42 42 43 43 43 43 43 43 43 42 41
17 17 17 17 18 19 21 22 23 25 25 27 28 29 30 31 31 32 33 33 34 35 36 37 38 39 40 41 42 43 43 44 44 45 46 47 47 47 47 46 46 46 46
21 21 21 20 21 22 23 24 26 28 29 29 30 31 33 34 35 36 37 38 39 40 40 41 42 42 43 44 45 45 46 47 47 48 49 50 50 50 50 50 49 49 48
27 25 25 24 24 25 25 27 29 31 31 31 32 34 36 37 38 39 40 41 42 43 44 44 45 45 46 46 47 47 48 49 50 50 51 52 52 52 52 52 52 51 50
30 29 28 27 28 28 28 29 30 31 32 33 35 36 38 39 40 42 43 44 45 46 47 48 48 48 49 49 50 51 52 53 54 55 55 55 55 54 54 54 53 53 52
31 30 30 29 29 29 30 31 32 32 33 35 36 38 39 40 41 43 44 45 47 48 50 51 51 52 52 53 54 55 56 57 57 58 59 58 58 57 57 56 55 55 54
31 30 30 30 30 31 32 32 32 33 33 34 36 38 40 42 43 44 45 47 49 50 51 52 53 54 56 57 58 58 59 60 61 61 61 61 60 59 59 58 57 56 56
30 29 29 29 30 31 32 33 34 34 35 37 39 40 41 43 45 46 47 49 51 52 54 55 56 58 59 61 62 62 62 62 62 62 62 62 62 61 61 60 60 59 58
28 27 27 29 30 32 34 35 36 37 39 40 41 43 44 45 46 47 49 51 53 55 57 58 60 61 62 63 64 64 64 64 64 63 63 63 64 64 63 63 63 62 61
29 28 29 30 32 34 35 37 39 41 42 43 45 46 47 48 49 50 51 53 56 58 60 62 63 64 65 66 66 66 66 66 66 66 66 66 66 66 67 67 67 66 65
30 30 31 32 34 36 38 41 43 44 46 47 48 49 51 52 53 54 55 57 59 61 63 65 66 67 68 68 68 69 69 69 69 69 69 69 70 70 71 71 70 69 68
32 32 34 36 38 40 43 45 47 49 50 51 52 54 55 57 58 59 60 61 62 63 65 67 68 69 70 70 70 70 71 72 72 72 73 74 75 75 75 75 74 73 70
36 37 39 41 43 45 47 50 51 53 54 56 57 59 60 62 63 64 65 65 64 64 65 66 67 69 70 71 71 72 73 74 74 75 76 77 78 78 79 78 77 75 73
42 43 44 46 48 51 53 54 56 57 59 61 62 63 64 65 66 66 66 66 64 63 63 64 66 69 70 71 72 73 74 75 76 76 77 77 77 77 77 77 76 75 73
47 48 50 52 54 56 57 59 60 62 63 63 64 65 65 65 65 65 65 65 65 63 62 64 66 69 71 71 72 73 73 73 73 73 72 72 71 71 70 71 71 70 70
51 53 56 58 59 60 61 62 63 64 63 64 64 64 64 65 65 65 64 64 64 64 63 63 66 67 69 69 69 69 68 67 65 63 61 60 60 60 61 62 63 63 64
57 58 60 61 62 62 63 63 63 64 64 64 64 64 64 63 63 63 63 64 64 65 64 63 65 65 66 66 65 64 61 58 54 52 51 51 50 50 50 51 52 53 54
59 61 62 62 63 63 63 62 62 62 63 63 63 62 62 62 62 62 63 63 63 63 63 62 60 60 59 58 56 52 49 46 44 43 42 41 41 41 41 41 41 43 46
61 62 62 62 63 62 62 61 61 61 61 61 60 60 60 60 61 61 62 62 62 61 60 58 55 53 51 48 44 41 39 37 36 35 34 33 34 34 34 34 34 35 37
61 61 61 61 61 60 60 61 60 60 59 59 58 58 58 59 60 60 60 59 58 56 55 53 49 45 40 38 36 33 32 32 32 31 30 29 29 28 28 29 29 30 31
60 60 60 59 59 58 58 58 57 56 56 56 57 58 58 58 58 57 56 54 53 51 47 43 38 34 32 31 30 30 29 29 30 30 27 26 26 25 26 25 25 26 27
58 57 57 57 57 56 55 55 55 56 56 56 56 56 56 55 54 53 51 49 46 42 37 32 28 27 27 28 28 28 28 27 27 27 26 25 25 24 23 22 22 22 23
55 54 54 54 54 53 53 54 54 54 54 53 52 51 50 50 49 46 43 40 36 32 27 23 22 24 25 26 26 26 27 27 26 26 25 24 24 22 20 19 19 19 19
51 51 51 51 51 51 52 51 51 51 50 49 48 46 44 42 39 36 32 29 26 23 21 21 22 23 24 24 25 26 26 25 25 25 23 21 21 19 18 17 16 15 16
47 47 47 48 48 48 48 47 47 46 46 44 42 40 37 33 29 25 22 20 19 18 19 20 21 22 24 24 25 24 23 22 22 21 20 18 17 15 15 14 13 13 13
45 45 44 44 44 44 44 43 41 40 39 38 35 32 27 23 19 17 14 13 14 15 17 19 21 22 23 23 22 21 20 19 18 17 16 15 14 12 11 11 10 10 10
Wind_Direction
282 283 284 287 289 290 290 292 292 292 290 288 286 283 281 280 280 281 281 281 281 281 282 282 282 282 282 281 281 282 282 281 281 281 280 280 278 278 277 277 277 276 276
286 285 287 288 289 291 292 292 292 292 293 292 290 287 285 283 282 281 281 281 281 281 281 282 282 282 282 281 282 282 281 281 280 279 279 279 278 278 277 276 275 275 275
285 285 284 286 289 290 291 291 291 291 291 289 288 287 285 283 282 282 281 282 282 282 282 282 282 282 282 282 282 282 282 281 280 280 279 279 278 277 277 275 274 274 274
282 282 283 284 285 287 288 290 290 289 288 288 287 286 284 283 283 283 282 282 283 283 283 283 283 283 283 283 283 283 282 281 281 280 280 279 278 277 276 275 274 273 272
281 281 282 283 283 284 286 289 290 289 289 288 287 287 286 284 284 284 284 284 284 284 284 284 284 284 283 283 282 282 281 281 281 281 280 280 278 277 276 275 274 273 272
278 278 279 281 281 283 287 289 290 290 290 289 289 289 288 287 287 286 286 285 285 285 285 284 284 284 284 283 283 282 282 282 282 281 280 279 278 277 276 275 274 273 271
277 276 276 281 284 286 289 291 290 291 292 292 292 292 291 289 288 288 288 287 286 285 285 285 284 284 284 284 284 283 283 282 282 281 280 279 278 276 275 274 273 272 270
280 277 279 284 288 290 293 295 296 296 297 298 296 294 292 291 290 289 289 287 286 286 286 285 285 285 285 285 285 284 283 282 282 281 279 278 277 276 274 273 272 271 269
287 284 285 290 292 295 295 298 299 300 300 300 298 296 294 293 291 290 289 289 288 288 287 287 286 286 286 286 285 284 283 282 281 280 279 277 275 274 273 273 271 270 268
296 292 292 294 296 297 297 301 302 302 301 300 299 297 295 294 293 292 291 290 290 289 289 288 288 287 287 286 285 284 283 282 281 279 277 276 275 274 273 272 270 269 268
296 298 297 298 298 299 300 302 303 302 301 300 299 297 296 295 294 293 292 291 291 290 290 290 289 288 287 286 284 283 282 281 280 278 276 274 273 272 271 271 269 268 267
301 300 300 299 301 303 303 302 302 301 301 299 298 297 296 295 294 293 293 292 291 290 290 289 288 287 286 285 284 283 282 281 279 278 276 274 273 272 271 270 269 267 265
305 303 302 301 302 302 302 301 300 300 299 298 297 296 295 295 294 293 293 292 291 290 289 289 289 288 287 286 285 284 283 281 280 278 277 276 274 273 272 270 269 267 264
303 301 301 301 300 300 300 299 298 297 297 296 296 295 295 294 294 294 293 292 292 291 290 289 289 288 288 287 286 285 284 284 282 281 280 278 277 275 274 271 269 266 263
302 300 300 299 299 298 297 297 296 296 295 294 294 294 294 294 294 294 293 293 293 292 290 290 289 288 288 288 288 287 287 287 286 285 283 281 280 277 275 272 268 265 261
301 299 299 298 297 296 295 295 295 294 294 294 294 294 294 295 295 295 295 295 295 294 293 292 291 289 289 289 290 290 290 289 288 286 285 283 280 278 275 272 268 264 260
299 298 297 297 296 295 295 295 295 294 294 294 295 295 295 295 295 296 296 296 296 296 295 294 293 292 292 292 292 292 292 291 289 288 286 284 281 279 277 273 268 263 259
299 298 297 297 296 296 296 295 294 294 294 295 295 295 296 296 296 297 297 297 297 296 296 295 295 294 294 294 294 295 295 294 293 291 289 286 284 281 279 276 270 264 259
298 298 297 296 296 296 295 294 294 294 294 295 296 296 297 297 298 298 298 298 297 297 298 298 297 297 296 296 296 297 298 297 296 294 293 290 287 284 281 278 273 266 261
297 296 296 295 295 295 294 294 294 295 295 296 297 298 298 298 299 299 298 298 298 299 299 299 300 299 297 297 299 300 300 300 299 298 296 293 290 287 284 280 274 267 260
296 295 295 295 295 295 294 295 295 296 297 298 299 299 299 300 300 299 299 299 299 299 300 300 300 299 299 300 302 303 303 302 301 300 300 297 293 289 285 282 278 269 261
295 295 294 294 294 294 294 295 296 297 298 299 299 299 300 300 300 300 301 301 301 302 302 301 301 300 302 303 304 305 306 305 305 304 302 299 295 292 288 284 278 270 262
294 294 293 293 294 294 295 296 297 298 298 299 299 299 300 301 302 302 302 302 303 304 305 305 305 306 307 307 308 309 308 308 307 305 304 300 295 292 289 285 278 270 262
293 293 293 293 294 295 296 297 297 298 298 298 299 301 302 303 304 303 303 304 305 308 310 311 312 314 314 314 314 313 312 310 309 308 307 303 298 293 287 282 278 272 263
293 293 294 294 295 295 296 296 297 298 299 300 302 304 306 306 305 305 305 306 309 313 316 319 320 321 321 321 320 319 318 316 315 313 311 308 304 298 289 283 278 273 264
294 294 295 295 296 295 296 297 298 300 302 304 306 308 309 308 307 308 311 314 319 322 325 327 328 329 330 331 331 331 329 328 326 324 322 318 313 307 297 288 279 271 264
Height
5868 5867 5866 5865 5864 5862 5861 5860 5859 5857 5856 5855 5854 5853 5853 5852 5851 5851 5850 5850 5850 5849 5849 5848 5847 5846 5845 5844 5843 5842 5841 5841 5840 5839 5838 5838 5838 5837 5837 5838 5838 5838 5839
5864 5863 5862 5860 5859 5858 5857 5856 5854 5853 5851 5849 5848 5847 5846 5845 5844 5844 5843 5843 5842 5841 5840 5839 5838 5837 5836 5835 5834 5833 5832 5831 5830 5829 5828 5828 5827 5827 5827 5827 5827 5828 5828
5859 5858 5857 5855 5854 5853 5852 5850 5849 5847 5846 5844 5843 5841 5840 5839 5838 5837 5836 5835 5834 5832 5831 5830 5828 5827 5825 5824 5823 5822 5820 5819 5818 5817 5817 5816 5815 5815 5815 5815 5815 5816 5816
5853 5852 5851 5849 5848 5847 5845 5844 5843 5841 5839 5838 5836 5834 5833 5831 5830 5828 5827 5826 5824 5822 5820 5819 5817 5816 5814 5813 5811 5810 5808 5807 5806 5805 5804 5803 5802 5802 5802 5802 5802 5803 5804
5846 5845 5844 5842 5841 5840 5838 5837 5835 5834 5832 5830 5828 5826 5824 5823 5821 5819 5818 5816 5814 5811 5809 5807 5805 5803 5802 5800 5799 5797 5795 5794 5793 5791 5790 5789 5788 5787 5787 5787 5788 5789 5790
5837 5836 5835 5834 5833 5832 5831 5829 5828 5826 5824 5822 5820 5818 5816 5814 5812 5809 5807 5805 5803 5800 5798 5795 5793 5791 5789 5787 5785 5783 5781 5780 5778 5776 5775 5774 5773 5772 5772 5772 5772 5773 5774
5829 5827 5827 5826 5825 5823 5823 5821 5819 5818 5816 5814 5812 5809 5807 5804 5802 5799 5796 5794 5791 5788 5785 5783 5780 5778 5775 5773 5770 5768 5766 5764 5762 5761 5759 5758 5757 5756 5756 5756 5756 5757 5758
5821 5820 5819 5818 5816 5815 5814 5812 5810 5809 5807 5805 5803 5800 5797 5795 5792 5789 5785 5782 5779 5775 5772 5769 5767 5764 5760 5757 5755 5752 5750 5747 5745 5744 5742 5741 5740 5739 5739 5739 5739 5740 5741
5813 5812 5811 5809 5808 5807 5805 5803 5801 5799 5797 5795 5793 5790 5787 5784 5781 5778 5774 5770 5766 5763 5759 5755 5752 5748 5745 5741 5738 5735 5732 5730 5728 5726 5724 5723 5722 5721 5720 5720 5721 5721 5723
5805 5804 5803 5801 5800 5798 5796 5794 5792 5790 5787 5785 5782 5779 5776 5772 5769 5766 5763 5758 5753 5749 5745 5740 5736 5731 5727 5724 5720 5717 5714 5712 5709 5707 5706 5704 5702 5701 5701 5701 5701 5702 5703
5798 5796 5795 5794 5792 5790 5787 5785 5782 5779 5776 5773 5770 5767 5763 5759 5756 5753 5750 5746 5740 5734 5729 5724 5718 5713 5709 5704 5701 5698 5695 5692 5689 5687 5685 5683 5682 5681 5680 5679 5680 5681 5682
5790 5789 5787 5785 5783 5781 5778 5775 5772 5768 5765 5761 5757 5754 5750 5746 5741 5737 5734 5730 5726 5720 5713 5706 5700 5694 5689 5685 5681 5677 5674 5670 5668 5665 5663 5661 5659 5658 5657 5656 5657 5658 5660
5783 5781 5779 5776 5774 5771 5768 5764 5760 5756 5752 5748 5744 5739 5735 5730 5725 5721 5717 5713 5709 5705 5698 5690 5681 5674 5668 5664 5660 5656 5652 5648 5644 5641 5639 5636 5634 5632 5631 5631 5631 5633 5635
5774 5772 5769 5766 5763 5759 5756 5752 5748 5744 5739 5734 5729 5724 5719 5714 5709 5703 5699 5694 5691 5688 5682 5675 5665 5655 5648 5643 5638 5633 5629 5624 5620 5616 5613 5610 5607 5605 5604 5603 5604 5606 5609
5765 5761 5758 5755 5751 5747 5743 5739 5734 5730 5725 5719 5714 5709 5703 5698 5692 5686 5680 5675 5672 5669 5666 5658 5648 5639 5630 5623 5617 5612 5606 5601 5596 5591 5587 5584 5581 5579 5577 5576 5577 5578 5581
5754 5751 5747 5743 5738 5734 5729 5724 5719 5714 5709 5703 5698 5693 5687 5681 5675 5669 5663 5657 5651 5648 5646 5640 5630 5620 5612 5604 5598 5592 5586 5580 5575 5569 5565 5561 5558 5556 5554 5552 5552 5553 5556
5742 5738 5733 5728 5724 5719 5714 5709 5703 5698 5693 5687 5682 5676 5671 5665 5658 5652 5646 5640 5634 5628 5625 5620 5610 5602 5594 5586 5580 5573 5567 5561 5556 5551 5546 5542 5539 5537 5534 5532 5532 5532 5535
5728 5723 5719 5714 5708 5703 5698 5693 5687 5682 5677 5672 5666 5660 5654 5649 5642 5636 5630 5623 5617 5610 5606 5601 5594 5585 5577 5570 5564 5558 5552 5546 5541 5536 5531 5528 5524 5521 5519 5517 5516 5516 5518
5713 5708 5703 5698 5693 5688 5682 5677 5671 5666 5661 5656 5651 5645 5639 5633 5627 5621 5614 5608 5601 5594 5588 5583 5577 5570 5563 5556 5551 5546 5540 5534 5529 5525 5521 5517 5513 5510 5507 5505 5504 5504 5505
5698 5693 5688 5682 5677 5672 5667 5662 5657 5652 5647 5641 5636 5631 5625 5619 5613 5606 5600 5593 5586 5580 5573 5568 5563 5557 5551 5545 5540 5536 5531 5525 5520 5516 5512 5508 5504 5501 5498 5496 5495 5494 5495
5683 5678 5673 5667 5662 5658 5653 5648 5643 5638 5633 5628 5622 5616 5610 5605 5599 5592 5586 5579 5573 5567 5561 5556 5551 5546 5541 5536 5532 5527 5523 5518 5513 5508 5504 5500 5496 5494 5491 5488 5487 5486 5486
5669 5664 5659 5654 5649 5644 5639 5634 5630 5625 5620 5615 5609 5602 5596 5591 5585 5579 5572 5566 5561 5555 5551 5547 5542 5538 5534 5529 5525 5520 5515 5511 5506 5502 5497 5493 5489 5486 5484 5481 5480 5478 5478
5655 5650 5645 5640 5636 5631 5627 5622 5617 5612 5607 5602 5597 5591 5584 5578 5573 5567 5561 5555 5551 5546 5543 5539 5536 5532 5528 5523 5519 5514 5509 5504 5499 5494 5490 5486 5482 5480 5477 5475 5474 5473 5472
5642 5637 5633 5628 5624 5619 5615 5610 5605 5600 5595 5590 5585 5580 5574 5568 5562 5558 5553 5548 5544 5541 5537 5534 5530 5526 5522 5517 5512 5507 5502 5497 5492 5487 5483 5480 5476 5473 5471 5470 5468 5468 5467
5629 5625 5621 5616 5612 5607 5603 5598 5593 5588 5583 5579 5574 5570 5565 5559 5555 5551 5547 5544 5540 5537 5534 5530 5526 5522 5517 5512 5507 5501 5496 5492 5487 5482 5478 5474 5471 5468 5466 5465 5464 5463 5463
5617 5613 5609 5605 5600 5596 5592 5587 5583 5578 5574 5569 5565 5561 5557 5553 5549 5546 5544 5541 5538 5535 5532 5528 5523 5518 5513 5508 5502 5497 5492 5487 5482 5478 5474 5470 5467 5465 5463 5462 5461 5460 5460